Orbital Elements at Epoch 2459000.5 (2020-May-31.0) TDB
Reference: JPL 17 (heliocentric ecliptic J2000)
Element | Value | Uncertainty (1-sigma) | Units |
e | .06635853210849414 | 5.691e-08 | |
a | 5.213868730439247 | 1.7201e-07 | au |
q | 4.86788405488092 | 3.2333e-07 | au |
i | 12.60841081150498 | 6.5328e-06 | deg |
node | 198.5981480757985 | 2.4236e-05 | deg |
peri | 294.0807146576615 | 6.6103e-05 | deg |
M | 208.0990665156209 | 6.7352e-05 | deg |
tp | 2460835.332854376729 (2025-Jun-08.83285438) | 0.00088113 | TDB |
period | 4348.490904063798 11.91 | 0.00021519 5.892e-07 | d yr |
n | .08278734115864632 | 4.0968e-09 | deg/d |
Q | 5.559853405997573 | 1.8342e-07 | au |
|
| | Orbit Determination Parameters
Additional Information
|